Location: Kelowna
(49.8880°N, 119.4960°W)
Time: 12:15:07
(UTC-07:00)

O/OREOS (USA 219) - Visible Passes

Search period start: 22 April 2024 00:00
Search period end: 02 May 2024 00:00
Orbit: 621 x 646 km, 72.0° (Epoch: 22 May)

Date Brightness Start Highest point End Pass type
(mag) Time Alt. Az. Time Alt. Az. Time Alt. Az.
22 Apr ? 03:34:24 10° NNW 03:38:41 39° NE 03:42:54 10° SE visible
22 Apr ? 21:12:42 10° WNW 21:14:55 13° NW 21:17:06 10° N visible
23 Apr ? 02:18:02 10° N 02:20:39 15° NE 02:23:14 10° ENE visible
23 Apr ? 03:56:20 10° NNW 04:00:52 77° ENE 04:05:20 10° SSE visible
24 Apr ? 02:39:27 10° N 02:43:10 24° NE 02:46:51 10° ESE visible
24 Apr ? 04:18:29 10° NW 04:22:53 53° WSW 04:27:14 10° S visible
25 Apr ? 03:01:12 10° NNW 03:05:30 43° NE 03:09:47 10° SE visible
25 Apr ? 04:40:59 10° NW 04:44:43 26° WSW 04:48:26 10° SSW visible
25 Apr ? 20:39:53 10° WNW 20:41:48 12° NW 20:43:43 10° NNW visible
26 Apr ? 01:44:43 10° N 01:47:32 16° NE 01:50:18 10° E visible
26 Apr ? 03:23:09 10° NNW 03:27:41 84° ENE 03:32:09 10° SSE visible
26 Apr ? 05:04:20 10° WNW 05:06:24 13° W 05:08:27 10° SW visible
27 Apr ? 02:06:13 10° N 02:10:01 26° NE 02:13:48 10° ESE visible
27 Apr ? 03:45:20 10° NW 03:49:40 48° WSW 03:53:01 16° S visible
28 Apr ? 00:50:44 10° NNE 00:51:45 11° NE 00:52:46 10° NE visible
28 Apr ? 02:27:59 10° NNW 02:32:21 47° ENE 02:35:55 14° SE visible
28 Apr ? 04:07:54 10° NW 04:11:29 24° WSW 04:13:16 19° SW visible
29 Apr ? 01:11:26 10° N 01:14:24 17° NE 01:17:21 10° E visible
29 Apr ? 02:49:57 10° NNW 02:54:29 88° WSW 02:56:31 32° SSE visible
29 Apr ? 04:31:33 10° WNW 04:33:08 12° W 04:33:54 11° WSW visible
30 Apr ? 01:32:58 10° N 01:36:52 28° NE 01:39:56 14° ESE visible
30 Apr ? 03:12:11 10° NW 03:16:27 43° WSW 03:17:20 38° SW visible
01 May ? 00:17:12 10° NNE 00:18:39 11° NE 00:20:06 10° NE visible
01 May ? 01:54:46 10° NNW 01:59:10 51° ENE 02:00:55 32° ESE visible
01 May ? 03:34:49 10° NW 03:38:14 22° WSW 03:38:19 22° WSW visible
